TimeEST,TemperatureF,Dew PointF,Humidity,Sea Level PressureIn,VisibilityMPH,Wind Direction,Wind SpeedMPH,Gust SpeedMPH,PrecipitationIn,Events,Conditions,WindDirDegrees,DateUTC
12:56 AM,32.0,21.9,66,30.22,9.0,West,6.9,-,N/A,,Clear,280,2012-11-29 05:56:00
1:56 AM,30.0,21.9,72,30.24,9.0,WNW,4.6,-,N/A,,Clear,290,2012-11-29 06:56:00
2:56 AM,30.9,23.0,72,30.24,9.0,WSW,4.6,-,N/A,,Clear,250,2012-11-29 07:56:00
3:56 AM,30.0,24.1,79,30.25,8.0,West,6.9,-,N/A,,Clear,270,2012-11-29 08:56:00
4:56 AM,30.0,24.1,79,30.25,8.0,West,6.9,-,N/A,,Clear,270,2012-11-29 09:56:00
5:56 AM,30.0,24.1,79,30.26,9.0,West,6.9,-,N/A,,Clear,270,2012-11-29 10:56:00
6:56 AM,30.9,23.0,72,30.27,8.0,West,6.9,-,N/A,,Clear,270,2012-11-29 11:56:00
7:56 AM,33.1,24.1,70,30.30,10.0,West,6.9,-,N/A,,Clear,280,2012-11-29 12:56:00
8:56 AM,35.1,23.0,61,30.31,10.0,West,8.1,-,N/A,,Clear,270,2012-11-29 13:56:00
9:56 AM,37.9,21.9,53,30.32,9.0,WNW,10.4,-,N/A,,Clear,290,2012-11-29 14:56:00
10:56 AM,41.0,21.9,47,30.30,10.0,West,8.1,-,N/A,,Clear,270,2012-11-29 15:56:00
11:56 AM,41.0,21.0,45,30.28,10.0,West,8.1,-,N/A,,Clear,260,2012-11-29 16:56:00
12:56 PM,43.0,21.0,42,30.25,10.0,West,12.7,18.4,N/A,,Clear,270,2012-11-29 17:56:00
1:56 PM,43.0,25.0,49,30.24,9.0,WSW,10.4,20.7,N/A,,Clear,250,2012-11-29 18:56:00
2:56 PM,43.0,27.0,53,30.23,8.0,West,15.0,24.2,N/A,,Clear,260,2012-11-29 19:56:00
3:56 PM,42.1,27.0,55,30.23,8.0,West,11.5,19.6,N/A,,Clear,260,2012-11-29 20:56:00
4:56 PM,41.0,26.1,55,30.24,9.0,West,12.7,23.0,N/A,,Clear,270,2012-11-29 21:56:00
5:56 PM,42.1,27.0,55,30.25,9.0,West,10.4,20.7,N/A,,Clear,260,2012-11-29 22:56:00
6:56 PM,42.1,27.0,55,30.26,9.0,West,12.7,18.4,N/A,,Clear,260,2012-11-29 23:56:00
7:56 PM,41.0,27.0,57,30.27,8.0,West,8.1,16.1,N/A,,Clear,270,2012-11-30 00:56:00
8:56 PM,42.1,27.0,55,30.27,8.0,West,11.5,18.4,N/A,,Clear,270,2012-11-30 01:56:00
9:56 PM,42.1,30.0,62,30.27,7.0,West,10.4,-,N/A,,Clear,260,2012-11-30 02:56:00
10:56 PM,41.0,28.0,60,30.27,7.0,West,13.8,20.7,N/A,,Clear,270,2012-11-30 03:56:00
11:56 PM,41.0,26.1,55,30.28,7.0,West,11.5,18.4,N/A,,Clear,260,2012-11-30 04:56:00